Buffalo, NY

3:43 PM EDT on June 26, 2017 (GMT -0400)
Buffalo Niagara International

Weather History for KBUF - March, 2014

Change the Weather History Date:

Friday, March 21, 2014

  Actual Average Record
Temperature  
Mean Temperature 32 °F 36 °F  
Max Temperature 37 °F 44 °F 82 °F (2012)
Min Temperature 26 °F 28 °F -2 °F (1885)
Degree Days  
Heating Degree Days 33 29  
Month to date heating degree days 842 689  
Since 1 July heating degree days 5948 5433  
Cooling Degree Days 0 0  
Month to date cooling degree days 0 0  
Year to date cooling degree days 0 0  
Moisture  
Dew Point 20 °F    
Average Humidity 59    
Maximum Humidity 75    
Minimum Humidity 43    
Precipitation  
Precipitation 0.00 in 0.10 in 1.35 in (1980)
Month to date precipitation 1.46 1.91  
Year to date precipitation 8.24 7.58  
Snow  
Snow 0.00 in 0.40 in 9.70 in (1936)
Month to date snowfall 16.8 10.0  
Since 1 July snowfall 121.0 88.8  
Snow Depth T in    
Sea Level Pressure  
Sea Level Pressure 30.04 in    
Wind  
Wind Speed 9 mph (WSW)    
Max Wind Speed 15 mph    
Max Gust Speed 20 mph    
Visibility 10 miles    
Events      
T = Trace of Precipitation, MM = Missing Value Source: NWS Daily Summary

Daily Weather History Graph

Daily Weather History Graph

Search for Another Location

Airport or City:

Trip Planner

Search our weather history database for the weather conditions in past years. The results will help you decide how hot, cold, wet, or windy it might be!

Date:

Astronomy

Mar. 21, 2014 Rise Set
Actual Time 7:16 AM EDT 7:28 PM EDT
Civil Twilight 6:48 AM EDT 7:56 PM EDT
Nautical Twilight 6:14 AM EDT 8:29 PM EDT
Astronomical Twilight 5:41 AM EDT 9:03 PM EDT
Moon No Moon Rise 10:00 AM EDT (3/21)
Length of Visible Light 13h 08m
Length of Day
12h 11m
Waning Gibbous, 75% of the Moon is Illuminated
Mar 21
Waning Gibbous
Mar 23
Last Quarter
Mar 30
New
Apr 7
First Quarter
Apr 15
Full

Hourly Weather History & Observations

Time (EDT) Temp. Windchill Dew Point Humidity Pressure Visibility Wind Dir Wind Speed Gust Speed Precip Events Conditions
12:54 AM 30.9 °F 21.7 °F 21.9 °F 69% 29.98 in 10.0 mi West 11.5 mph - N/A   Partly Cloudy
1:54 AM 30.0 °F 21.7 °F 21.9 °F 72% 29.99 in 10.0 mi West 9.2 mph - N/A   Partly Cloudy
2:54 AM 28.9 °F 19.2 °F 21.0 °F 72% 30.00 in 10.0 mi WSW 11.5 mph - N/A   Partly Cloudy
3:54 AM 28.0 °F 18.1 °F 19.9 °F 72% 30.00 in 10.0 mi WSW 11.5 mph - N/A   Partly Cloudy
4:54 AM 28.0 °F 18.6 °F 19.0 °F 69% 30.01 in 10.0 mi WSW 10.4 mph - N/A   Partly Cloudy
5:54 AM 27.0 °F 18.0 °F 17.1 °F 66% 30.02 in 10.0 mi West 9.2 mph - N/A   Partly Cloudy
6:54 AM 27.0 °F 18.7 °F 17.1 °F 66% 30.04 in 10.0 mi West 8.1 mph - N/A   Scattered Clouds
7:54 AM 26.1 °F 18.4 °F 18.0 °F 71% 30.06 in 10.0 mi West 6.9 mph - N/A   Scattered Clouds
8:54 AM 28.0 °F 20.8 °F 19.0 °F 69% 30.07 in 10.0 mi West 6.9 mph - N/A   Partly Cloudy
9:54 AM 30.0 °F 21.7 °F 19.9 °F 66% 30.09 in 10.0 mi West 9.2 mph - N/A   Partly Cloudy
10:54 AM 30.9 °F 25.2 °F 19.9 °F 64% 30.11 in 10.0 mi West 5.8 mph - N/A   Mostly Cloudy
11:04 AM 30.9 °F 22.8 °F 19.9 °F 64% 30.08 in 10.0 mi West 9.2 mph - N/A   Mostly Cloudy
11:32 AM 30.9 °F 22.8 °F 19.0 °F 61% 30.08 in 10.0 mi West 9.2 mph - N/A   Mostly Cloudy
11:54 AM 32.0 °F 24.2 °F 21.0 °F 64% 30.11 in 10.0 mi West 9.2 mph - N/A   Mostly Cloudy
12:54 PM 34.0 °F 26.6 °F 21.0 °F 59% 30.10 in 10.0 mi SW 9.2 mph - N/A   Mostly Cloudy
1:54 PM 35.1 °F 27.4 °F 25.0 °F 67% 30.08 in 10.0 mi WSW 10.4 mph 18.4 mph N/A   Scattered Clouds
2:54 PM 35.1 °F 26.4 °F 23.0 °F 61% 30.09 in 10.0 mi WSW 12.7 mph - N/A   Partly Cloudy
3:54 PM 34.0 °F 25.5 °F 21.9 °F 61% 30.08 in 10.0 mi SSW 11.5 mph - N/A   Partly Cloudy
4:54 PM 35.1 °F 28.6 °F 21.0 °F 57% 30.06 in 10.0 mi WSW 8.1 mph - N/A   Partly Cloudy
5:54 PM 36.0 °F 30.3 °F 19.0 °F 50% 30.05 in 10.0 mi SW 6.9 mph - N/A   Partly Cloudy
6:54 PM 34.0 °F 28.0 °F 14.0 °F 44% 30.05 in 10.0 mi SW 6.9 mph - N/A   Scattered Clouds
7:54 PM 33.1 °F 30.0 °F 14.0 °F 46% 30.00 in 10.0 mi SE 3.5 mph - N/A   Mostly Cloudy
8:54 PM 32.0 °F 27.5 °F 17.1 °F 54% 30.00 in 10.0 mi ENE 4.6 mph - N/A   Mostly Cloudy
9:54 PM 32.0 °F 26.4 °F 18.0 °F 56% 29.99 in 10.0 mi East 5.8 mph - N/A   Mostly Cloudy
10:54 PM 32.0 °F 24.2 °F 19.0 °F 59% 29.93 in 10.0 mi East 9.2 mph - N/A   Mostly Cloudy
11:54 PM 33.1 °F 23.9 °F 21.0 °F 61% 29.88 in 10.0 mi ESE 12.7 mph - N/A   Mostly Cloudy